Regional Weather Roundup
Issued by NWS

Home | Current Version | Previous Version | Graphics & Text | Print | Product List | Glossary On
Versions: 1 2 3 4 5 6 7 8 9 10 11 12 13 14 15 16 17 18 19 20 21 22 23 24 25 26 27 28 29 30 31 32 33 34 35 36 37 38 39 40 41 42 43 44 45 46 47 48 49 50
000
ASUS43 KLMK 171310
RWRKY
KENTUCKY REGIONAL WEATHER ROUNDUP
NATIONAL WEATHER SERVICE LOUISVILLE KY
900 AM EDT WED SEP 17 2014

NOTE "FAIR" INDICATES FEW OR NO CLOUDS BELOW 12,000 FEET
WITH NO SIGNIFICANT WEATHER AND/OR OBSTRUCTIONS TO VISIBILITY.

KYZ001>023-026-027-061>063-070>075-171400-
WESTERN AND SOUTH CENTRAL KENTUCKY

CITY           SKY/WX    TMP DP  RH WIND       PRES   REMARKS
PADUCAH        FOG       53  51  93 CALM      30.04R VSB<1/4
HENDERSON      CLOUDY    54  50  87 NE3       30.07S VSB 1/4
OWENSBORO      FOG       54  54 100 NE6       30.07R VSB 1/2
HOPKINSVILLE   FOG       52  52 100 E5        30.04S VSB 3/4
BOWLING GREEN  FOG       54  53  97 NE5       30.05S VSB 1/2
GLASGOW        CLOUDY    54  54 100 E5        30.04F FOG
$$

KYZ024-025-028>034-038-045-046-053-171400-
NORTH CENTRAL KENTUCKY

CITY           SKY/WX    TMP DP  RH WIND       PRES   REMARKS
LOUISVILLE/SDF PTSUNNY   57  52  83 NE3       30.06F
LOUISVILLE/LOU CLOUDY    57  52  83 NE5       30.07F
FORT KNOX      CLOUDY    54  52  94 N3        30.05S
$$

KYZ035>037-039>044-047>052-055>060-089>105-171400-
NORTHEAST KENTUCKY

CITY           SKY/WX    TMP DP  RH WIND       PRES   REMARKS
LEXINGTON      SUNNY     57  51  80 NE3       30.06F
COVINGTON      CLOUDY    54  52  93 CALM      30.07F
FRANKFORT      CLOUDY    50  49  96 CALM      30.06F
$$

KYZ054-064>069-076>088-106>120-171400-
SOUTHEAST KENTUCKY

CITY           SKY/WX    TMP DP  RH WIND       PRES   REMARKS
JACKSON        MOSUNNY   55  52  89 CALM      30.06S
LONDON         MOSUNNY   59  55  87 NE3       30.06S
SOMERSET       NOT AVBL
MIDDLESBORO    SUNNY     56  55  95 CALM      30.05F
MONTICELLO     PTSUNNY   58  55  89 E5        30.07F
$$



USA.gov is the U.S. government's official web portal to all federal, state and local government web resources and services.